Hourly Data Report for April 18, 2020

MIRAMICHI RCS
NEW BRUNSWICK
Current Station Operator: ECCC - MSC

47°00'34.000" N
65°27'54.000" W
33.00 m
8100989
71744
ACQ

Download Data

Hourly Data (April 2020)
Hourly Data Report for April 18, 2020
TIME
LST
Temp Definition
°C
Dew Point Definition
°C
Rel Hum Definition
%
Precip. Amount Definition
mm

Wind Dir Definition
10's deg

Wind Spd Definition
km/h
Visibility Definition
km
Stn Press Definition
kPa
Hmdx Definition


Wind Chill Definition


Weather Definition


00:00 -2.9 -7.6 70 LegendMM 27 4   101.01   -4 LegendNANA
01:00 -2.7 -10.8 54 LegendMM 27 8   101.06   -6 LegendNANA
02:00 -3.2 -10.9 55 LegendMM 26 8   101.10   -6 LegendNANA
03:00 -4.7 -9.6 68 LegendMM 29 4   101.06   -6 LegendNANA
04:00 -6.5 -10.1 76 LegendMM 21 6   101.07   -9 LegendNANA
05:00 -6.9 -9.8 79 LegendMM 0 1   101.06   -7 LegendNANA
06:00 -6.4 -10.3 74 LegendMM 26 7   101.08   -10 LegendNANA
07:00 -3.7 -9.8 62 LegendMM 26 7   101.11   -7 LegendNANA
08:00 -0.7 -11.1 45 LegendMM 24 8   101.13   -4 LegendNANA
09:00 1.4 -12.0 36 LegendMM 18 14   101.13     LegendNANA
10:00 3.0 -12.8 30 LegendMM 17 12   101.11     LegendNANA
11:00 3.8 -14.5 25 LegendMM 24 12   101.06     LegendNANA
12:00 4.8 -13.7 25 LegendMM 17 12   100.98     LegendNANA
13:00 5.4 -14.0 23 LegendMM 15 10   100.86     LegendNANA
14:00 6.8 -12.7 23 LegendMM 6 5   100.74     LegendNANA
15:00 5.9 -10.6 30 LegendMM 5 15   100.63     LegendNANA
16:00 5.8 -10.5 30 LegendMM 8 23   100.55     LegendNANA
17:00 4.9 -11.2 30 LegendMM 10 25   100.51     LegendNANA
18:00 3.8 -9.7 37 LegendMM 12 21   100.50     LegendNANA
19:00 2.1 -8.3 46 LegendMM 12 18   100.53     LegendNANA
20:00 0.6 -7.6 54 LegendMM 12 16   100.54     LegendNANA
21:00 -0.5 -7.5 59 LegendMM 11 11   100.58   -4 LegendNANA
22:00 -1.2 -7.0 65 LegendMM 6 6   100.51   -3 LegendNANA
23:00 -1.8 -6.5 70 LegendMM 4 8   100.46   -5 LegendNANA

Notes on Data Quality.

Legend

  • E = Estimated
  • M = Missing
  • NA = Not Available*
  • [empty] = Indicates an unobserved value
Date modified: